Location: Arrington
(35.8681°N, 86.7092°W)
Time: 03:59:58
(UTC+00:00)

ATLAS 2AS CENTAUR R/B - Pass Details

Date: 29 February 2020
Orbit: 929 x 1283 km, 63.7° (Epoch: 03 April)

Event Time Altitude Azimuth Distance (km) Brightness Sun altitude
Rises 00:22:01 0° 164° (SSE) 4,122 5.6 -9.2°
Reaches altitude 10° 00:25:36 10° 149° (SSE) 3,205 4.9 -9.9°
Maximum altitude 00:30:54 20° 105° (ESE) 2,567 4.1 -11.0°
Enters shadow 00:35:49 11° 65° (ENE) 3,175 4.6 -12.0°
